Probability
1 1 0 0 0 0 0 0 0 0 0 0 0 0 0 0 0 0 0 0 0 0 0 0 0 0 0 0 0 0 0 0 1 2 3 5 8 12 16 17 12 9 9
1 0 0 0 0 0 0 0 0 0 0 0 0 0 0 0 0 0 0 0 0 0 0 0 0 0 0 0 0 0 0 0 1 2 3 4 6 8 11 13 11 10 12
0 0 0 0 0 0 0 0 0 0 0 0 0 0 0 0 0 0 0 0 0 0 0 0 0 0 0 0 0 0 0 0 1 2 3 4 5 5 6 8 12 14 13
0 0 0 0 0 0 0 0 0 0 0 0 0 0 0 0 0 0 0 0 0 0 0 0 0 0 0 0 0 0 0 0 2 3 3 4 5 5 5 8 13 14 12
0 0 0 0 0 0 0 0 0 0 0 0 0 0 0 0 0 0 0 0 0 0 0 0 0 0 0 0 0 0 0 0 2 3 3 2 4 5 6 7 9 10 9
0 0 0 0 0 0 0 0 0 0 0 0 0 0 0 0 0 0 0 0 0 0 0 0 0 0 0 0 0 0 0 0 1 2 2 1 2 5 6 6 5 6 7
0 0 0 0 0 0 0 0 0 0 0 0 0 0 0 0 0 0 0 0 0 0 0 0 0 0 0 0 0 0 0 0 0 1 1 1 1 3 5 7 7 9 9
0 0 0 0 0 0 0 0 0 0 0 0 0 0 0 0 0 0 0 0 0 0 0 0 0 0 0 0 0 0 0 0 0 0 0 0 0 1 3 7 11 11 10
0 0 0 0 0 0 0 0 0 0 0 0 0 0 0 0 0 0 0 0 0 0 0 0 0 0 0 0 0 0 0 0 0 0 0 0 0 0 2 5 9 9 7
0 0 0 0 0 0 0 0 0 0 0 0 0 0 0 0 0 0 0 0 0 0 0 0 0 0 0 0 0 0 0 0 0 0 0 1 1 0 1 2 4 4 3
0 0 0 0 0 0 0 0 0 0 0 0 0 0 0 0 0 0 0 0 0 0 0 0 0 0 0 0 0 0 0 0 0 0 1 2 1 1 1 2 3 4 4
0 0 0 0 0 0 0 0 0 0 0 0 0 0 0 0 0 0 0 0 0 0 0 0 0 0 0 0 0 0 0 0 0 0 1 1 1 1 2 4 5 7 8
0 0 0 0 0 0 0 0 0 0 0 0 0 0 0 0 0 0 0 0 0 0 0 0 0 0 0 0 0 0 0 0 0 0 0 1 1 1 3 6 9 9 9
0 0 0 0 0 0 0 0 0 0 0 0 0 0 0 0 0 0 0 0 0 0 0 0 0 0 0 0 0 0 0 0 1 0 0 1 1 1 4 8 11 10 8
0 0 0 0 0 0 0 0 0 0 0 0 0 0 0 0 0 0 0 0 0 0 0 0 0 0 0 0 0 0 0 0 0 0 1 2 2 1 4 8 10 9 7
0 0 0 0 0 0 0 0 0 0 0 0 0 0 0 0 0 0 0 0 0 0 0 0 0 0 0 0 0 0 0 0 0 0 2 3 2 1 3 5 7 7 6
0 0 0 0 0 0 0 0 0 0 0 0 0 0 0 0 0 0 0 0 0 0 0 0 0 0 0 0 0 0 0 0 0 0 1 2 2 1 1 2 3 4 3
0 0 0 0 0 0 0 0 0 0 0 0 0 0 0 0 0 0 0 0 0 0 0 0 0 0 0 0 0 0 0 0 0 0 0 0 1 1 0 1 2 2 2
0 0 0 0 0 0 0 0 0 0 0 0 0 0 0 0 0 0 0 0 0 0 0 0 0 0 0 0 0 0 0 0 0 0 0 0 0 0 0 0 1 1 1
0 0 0 0 0 0 0 0 0 0 0 0 0 0 0 0 0 0 0 0 0 0 0 0 0 0 0 0 0 0 0 0 0 0 0 0 0 0 0 0 0 0 0
0 0 0 0 0 0 0 0 0 0 0 0 0 0 0 0 0 0 0 0 0 0 0 0 0 0 0 0 0 0 0 0 0 0 0 0 0 0 0 0 0 0 0
0 0 0 0 0 0 0 0 0 0 0 0 0 0 0 0 0 0 0 0 0 0 0 0 0 0 0 0 0 0 0 0 0 0 0 0 0 0 0 0 0 0 0
0 0 0 0 0 0 0 0 0 0 0 0 0 0 0 0 0 0 0 0 0 0 0 0 0 0 0 0 0 0 0 0 0 0 0 0 0 0 0 0 0 0 0
0 0 0 0 0 0 0 0 0 0 0 0 0 0 0 0 0 0 0 0 0 0 0 0 0 0 0 0 0 0 0 0 0 0 0 0 0 0 0 0 0 0 0
0 0 0 0 0 0 0 0 0 0 0 0 0 0 0 0 0 0 0 0 0 0 0 0 0 0 0 0 0 0 0 0 0 0 0 0 0 0 0 0 0 0 0
0 0 0 0 0 0 0 0 0 0 0 0 0 0 0 0 0 0 0 0 0 0 0 0 0 0 0 0 0 0 0 0 0 0 0 0 0 0 0 0 0 0 0
Wind_Speed
4 4 5 6 6 7 7 8 8 8 9 9 10 10 10 10 10 9 11 11 11 11 11 11 11 11 9 9 8 8 8 7 8 7 4 4 4 5 4 5 6 7 8
4 5 6 6 7 7 8 8 8 9 9 10 10 10 11 11 10 11 11 11 11 12 12 12 12 10 11 11 9 9 8 7 8 9 6 5 5 4 4 5 5 6 6
5 6 6 7 7 8 8 9 9 9 10 10 10 10 11 11 11 11 11 12 12 12 12 12 12 12 12 11 11 10 9 9 8 8 7 4 4 4 3 4 3 3 4
5 6 7 7 8 8 9 9 9 9 10 10 10 10 11 11 11 11 11 11 12 12 12 12 13 13 13 12 11 11 10 10 9 8 7 6 4 4 3 3 3 3 4
6 7 7 8 8 9 9 9 9 9 10 10 10 11 11 10 10 9 10 11 12 12 12 12 13 12 10 9 10 10 10 10 9 9 8 7 5 4 4 3 3 3 3
6 7 7 8 9 9 9 9 9 9 10 10 10 11 11 9 4 5 10 13 13 13 13 12 13 13 13 14 14 14 13 12 11 10 9 8 7 6 4 4 4 4 3
7 8 8 8 9 9 9 9 9 10 10 10 10 11 11 10 6 7 9 12 14 13 13 12 11 11 11 13 14 17 17 17 16 13 12 10 8 7 6 7 7 6 4
7 8 8 8 9 9 9 9 9 9 9 10 10 11 11 10 6 7 8 12 14 14 13 13 13 13 12 12 13 13 14 14 15 14 13 12 9 7 7 7 6 5 4
7 7 7 8 9 9 10 10 9 9 10 10 10 11 11 11 7 6 8 11 11 13 12 12 12 13 10 8 12 14 13 12 11 11 10 9 6 5 5 5 6 7 5
7 7 7 8 9 10 10 10 9 9 10 10 10 10 11 11 6 5 7 9 10 10 10 10 10 12 10 7 12 13 14 13 11 10 11 11 11 10 10 9 7 7 5
7 7 8 8 9 9 9 9 9 9 10 10 11 10 10 10 8 7 8 8 10 10 8 8 7 7 11 11 12 13 12 10 11 10 10 11 11 10 10 10 9 7 7
7 8 8 8 9 8 8 9 9 9 10 10 9 10 8 7 6 4 7 9 10 10 9 8 6 3 7 10 11 11 10 9 10 9 9 9 10 10 9 10 10 9 6
7 8 8 9 8 8 8 9 9 8 8 8 8 8 8 7 4 6 9 10 11 10 9 9 9 7 8 9 13 12 10 10 10 10 10 10 9 8 8 8 9 9 8
8 8 8 8 8 7 6 7 7 7 7 8 8 8 9 8 7 5 5 6 9 10 9 9 10 12 11 10 8 10 11 10 10 10 9 8 8 8 8 8 8 8 7
8 8 8 8 7 7 7 6 8 8 6 8 9 9 9 10 7 6 8 9 9 8 8 8 7 7 7 7 8 8 9 9 10 9 9 8 8 8 8 8 7 7 7
8 8 7 6 6 7 7 7 7 9 8 11 13 12 10 10 11 11 11 11 12 10 8 8 8 7 7 7 7 8 8 9 9 9 9 8 8 9 8 8 8 9 8
8 8 7 7 7 7 7 8 8 7 11 14 14 15 15 14 13 13 12 11 12 9 8 8 7 7 7 7 7 7 8 8 8 9 9 9 8 9 9 9 9 9 9
9 7 7 7 7 7 7 8 8 9 9 7 8 12 13 13 13 12 10 9 8 8 8 7 7 6 6 6 6 7 7 7 7 8 8 8 8 9 9 9 9 10 9
8 7 6 7 7 8 8 8 8 9 9 8 8 5 8 10 12 11 8 7 7 6 6 6 6 6 6 6 6 7 7 7 8 7 8 8 8 9 9 9 9 10 9
8 8 8 8 8 8 8 8 8 8 8 8 8 7 6 6 6 5 5 6 6 6 6 6 5 6 6 6 6 6 6 6 7 7 7 8 8 8 9 10 9 9 9
7 6 8 9 8 8 7 8 8 8 8 8 8 6 5 8 8 7 6 5 5 5 5 5 5 6 6 5 5 6 7 6 7 7 8 8 8 8 8 9 9 9 9
7 7 7 7 7 7 7 8 8 8 8 9 8 6 5 7 7 6 5 6 6 5 5 5 5 5 5 5 6 6 6 7 7 7 8 8 8 8 8 8 9 8 9
8 8 8 7 7 6 7 8 7 7 8 8 8 7 6 6 6 6 6 6 6 6 5 5 5 5 5 5 6 6 6 6 6 7 8 8 8 8 8 9 10 10 10
8 8 8 7 7 7 7 7 7 7 7 7 7 7 7 6 6 7 6 6 6 6 5 5 5 6 6 5 5 6 6 5 6 7 10 10 10 9 9 9 10 11 11
7 7 7 7 6 6 6 7 7 7 7 7 6 6 7 7 7 6 6 5 6 6 6 5 4 4 5 6 6 4 1 1 3 5 7 8 10 10 10 11 10 10 11
6 7 6 5 6 6 6 6 6 7 7 6 6 6 6 6 6 6 6 5 6 5 5 4 4 4 4 4 3 1 1 3 4 5 6 7 9 9 10 10 12 11 12
Wind_Direction
281 286 292 292 295 291 288 292 295 293 294 289 287 285 283 281 279 276 274 278 271 270 268 264 260 265 267 265 256 255 257 259 268 273 272 279 268 266 252 235 221 210 200
283 284 288 294 294 294 296 299 296 292 290 289 288 286 284 283 282 279 277 277 274 271 268 267 264 261 256 259 260 258 258 260 264 272 272 270 262 251 249 239 227 213 201
295 289 291 293 295 295 298 297 295 292 290 290 288 286 285 286 283 279 277 276 273 271 269 267 264 261 260 257 257 255 253 249 249 259 263 263 266 252 232 228 219 201 190
296 294 296 296 297 296 297 297 294 292 291 291 290 287 286 284 282 279 277 276 275 273 270 267 265 261 258 257 256 254 254 255 251 251 256 253 250 247 226 212 197 181 171
294 294 296 297 297 295 296 296 295 292 289 290 289 286 285 283 279 289 291 284 280 277 273 268 264 263 273 272 270 265 257 249 248 245 245 245 240 234 225 209 197 170 159
291 294 298 297 296 297 297 296 293 290 289 289 287 287 287 285 316 310 288 287 283 276 272 270 267 253 245 239 247 260 267 264 257 253 247 240 238 235 226 213 193 181 183
287 292 295 296 297 300 301 299 295 294 291 290 289 288 287 286 273 263 266 278 277 275 273 270 267 264 253 250 237 231 240 244 251 260 259 253 242 229 218 213 203 197 188
287 292 297 298 299 302 300 297 296 293 294 292 292 291 290 288 268 260 266 271 271 270 268 266 265 266 262 260 259 251 245 236 230 234 247 251 249 240 222 219 213 194 170
290 297 300 301 300 299 299 299 298 296 294 293 291 291 289 288 268 252 265 281 272 269 266 265 264 264 258 250 256 257 255 251 237 232 242 249 251 233 219 217 206 191 179
299 301 301 298 296 296 298 298 298 297 292 292 292 291 289 289 280 248 257 276 277 277 272 266 254 252 267 249 252 251 249 247 247 227 220 222 225 219 210 217 215 202 187
301 297 294 294 292 290 292 293 295 294 294 293 293 291 287 283 274 241 240 271 283 284 281 276 271 224 230 236 247 255 258 265 255 244 231 222 218 215 212 212 215 211 199
292 290 292 293 293 295 293 292 292 291 289 288 289 292 291 283 272 257 230 247 273 280 280 281 287 263 239 236 239 248 256 261 251 242 233 225 217 212 208 207 206 210 209
287 288 292 295 293 292 293 292 290 287 287 296 300 302 304 306 286 223 229 239 244 261 278 289 290 280 261 241 236 237 238 237 238 234 230 223 220 215 207 201 200 201 200
282 287 290 290 291 295 294 291 294 297 298 301 304 304 305 304 304 309 290 256 234 246 264 266 249 247 248 256 239 219 226 231 231 232 231 227 218 207 206 202 197 190 190
281 284 285 288 294 294 289 292 292 294 302 296 302 303 305 305 328 342 311 303 308 316 312 287 272 257 246 238 235 230 224 220 224 230 229 225 216 208 203 199 196 190 192
276 281 287 292 296 293 295 292 252 250 256 247 252 266 286 283 292 290 283 277 276 277 277 267 267 262 254 245 237 230 226 222 222 223 222 220 215 208 201 196 194 194 192
270 280 286 290 292 290 292 295 298 276 241 241 242 243 248 271 280 280 279 278 270 256 252 260 264 261 256 248 239 235 230 223 218 222 218 213 211 208 201 196 195 195 193
265 267 264 275 282 284 286 288 289 296 303 296 251 232 238 250 260 266 268 274 261 232 248 261 264 262 254 247 239 233 232 224 217 216 216 211 206 206 201 197 196 197 194
264 269 274 282 282 280 282 282 283 290 293 298 303 277 229 240 243 248 243 255 274 274 266 265 265 264 258 245 235 228 224 219 213 210 212 211 207 205 203 200 195 189 197
253 248 256 274 278 278 278 281 288 295 297 300 304 310 314 300 290 274 244 257 267 274 274 273 268 264 259 252 239 228 223 217 211 210 211 209 205 207 204 202 198 191 194
266 256 224 253 267 277 283 287 292 295 297 301 304 313 308 299 297 298 296 287 281 281 278 274 266 257 253 248 240 230 223 216 213 211 207 205 203 203 203 200 198 198 194
262 270 270 271 278 280 287 289 289 290 294 300 304 300 256 275 294 302 300 292 288 284 275 266 261 255 251 250 242 231 227 219 211 208 208 205 204 203 200 200 198 193 193
253 261 266 268 272 273 270 276 285 292 297 300 303 306 307 305 306 303 297 293 294 289 281 268 262 257 250 243 245 243 236 227 218 212 210 206 202 202 203 202 202 195 193
251 258 265 270 272 276 279 284 288 294 301 304 305 307 309 312 310 307 302 297 296 294 286 276 267 264 259 249 240 238 239 238 231 220 215 212 206 203 202 206 205 199 196
253 257 262 268 272 277 282 287 293 299 302 301 303 310 312 313 313 312 307 303 303 301 300 294 286 281 277 268 259 250 229 243 266 261 221 218 213 206 204 205 203 198 196
254 257 262 270 273 277 281 285 291 299 301 304 313 316 315 317 319 324 323 320 314 309 306 300 300 296 286 273 277 270 203 209 223 252 255 228 216 209 206 207 205 201 197